#timestamp,LO_Frequency,Hit,StdDev 
1589565615.6,286047009.2,Y
1589565635.4,286047004.1,P
1589565655.2,286047004.9,P
1589565675.1,286047005.9,P
1589565676.0,286047005.9,Y
1589565695.8,286046999.1,P
1589565715.7,286046999.1,N
1589565735.5,286046998.3,N
1589565755.3,286046998.7,N
1589565775.2,286046999.5,N
1589565795.0,286046996.6,N
1589565795.9,286046996.6,N
1589565815.7,286046995.7,N
1589565835.6,286046997.1,N
1589565855.4,286046996.9,N
1589565875.3,286046997.5,N
1589565895.1,286046998.8,N
1589565915.8,286046998.1,N
1589565935.7,286046999.4,N
1589565955.5,286046998.3,N
1589565975.4,286047000.5,N
1589565995.2,286047000.7,N
1589566015.0,286047000.5,N
1589566015.9,286047000.5,N
1589566035.8,286047002.8,N
1589566055.6,286047000.6,N
1589566075.5,286047001.2,N
1589566095.3,286047000.3,N
1589566115.1,286047000.5,N
1589566135.9,286046998.8,N
1589566155.7,286046998.3,N
1589566175.5,286046999.2,N
1589566195.4,286046996.8,N
1589566215.2,286046995.2,N
1589566235.1,286046997.1,N
1589566236.0,286046997.1,N
1589566255.8,286047002.8,N
1589566275.6,286046998.8,N
1589566295.5,286046995.0,N
1589566315.3,286046999.5,N
1589566335.1,286046997.1,N
1589566355.9,286046996.8,N
1589566375.7,286046998.9,N
1589566395.6,286046997.8,N
1589566415.4,286046999.3,N
1589566435.2,286046995.7,N
1589566455.1,286046997.0,N
1589566456.0,286046997.0,N
1589566475.8,286046999.4,N
1589566495.7,286046998.7,N
1589566515.5,286047001.1,N
1589566535.3,286047000.2,N
1589566555.2,286046998.4,N
1589566575.0,286046998.7,N
1589566575.9,286046998.7,N
1589566595.8,286047000.5,N
1589566615.6,286047002.7,N
1589566635.4,286047000.7,N
1589566655.3,286046999.0,N
1589566675.1,286047000.3,N
1589566695.8,286046998.3,N
1589566745.7,286047000.9,E
1589566755.6,286047000.5,N
1589566775.5,286046999.3,P
1589566795.3,286046998.3,N
1589566815.1,286046999.5,N
1589566835.9,286046999.0,N
1589566855.7,286046996.6,Y
1589566875.5,286047000.5,P
1589566895.4,286047000.5,N
1589566915.2,286047000.1,N
1589566935.1,286047003.1,Y
1589566936.0,286047003.1,P
1589566955.8,286047002.2,N
1589566975.6,286047000.2,N
1589566995.5,286046998.3,N
1589567015.3,286047001.1,N
1589567035.2,286047000.3,N
1589567055.9,286046999.8,N
1589567075.7,286046999.9,N
1589567095.6,286047000.6,N
1589567115.4,286047000.5,N
1589567135.3,286046998.6,N
1589567155.1,286046998.4,N
1589567175.8,286046998.1,N
1589567195.7,286047000.5,N
1589567215.5,286047002.8,N
1589567235.4,286047001.2,N
1589567255.2,286047000.2,N
1589567275.0,286047001.5,N
1589567275.9,286047001.5,N
1589567295.8,286047004.4,Y
1589567315.6,286047001.0,P
1589567335.5,286046997.9,P
1589567355.3,286046999.3,N
1589567375.1,286046998.2,N
1589567395.9,286047002.8,N
1589567415.7,286046998.4,N
1589567435.6,286046998.3,N
1589567455.4,286046998.7,N
1589567475.2,286047001.1,N
1589567495.1,286047002.0,N
1589567496.0,286047002.0,N
1589567515.8,286047000.2,N
1589567535.7,286047000.3,N
1589567555.5,286046999.9,N
1589567575.3,286047004.0,N
1589567595.2,286047001.7,N
1589567615.0,286047002.2,N
1589567615.9,286047002.2,N
1589567635.8,286047000.2,N
1589567655.6,286047001.9,N
1589567675.4,286047002.8,N
1589567695.3,286047003.1,N
1589567715.1,286047004.3,N
1589567735.9,286047002.7,N
1589567755.7,286047003.9,N
1589567775.5,286046999.8,N
1589567795.4,286047004.3,N
1589567815.2,286047003.2,N
1589567835.1,286047004.0,N
1589567836.0,286047004.0,N
1589567855.8,286047001.9,N
1589567875.6,286047002.5,N
1589567895.5,286047000.2,N
1589567915.3,286047002.1,N
1589567935.2,286047004.3,N
1589567955.9,286047003.1,N
1589567975.7,286047004.2,N
1589567995.6,286047003.9,N
1589568015.4,286046999.7,N
1589568035.2,286047000.0,N
1589568055.1,286047000.6,N
1589568056.0,286047000.6,N
1589568075.8,286047002.7,N
1589568095.7,286046999.9,N
1589568115.5,286047004.0,N
1589568135.3,286047001.6,N
1589568155.2,286047002.0,N
1589568175.0,286047000.0,N
1589568175.9,286047000.0,N
1589568195.8,286047000.6,N
1589568215.6,286047002.6,N
1589568235.4,286047002.3,N
1589568255.3,286047002.3,N
1589568275.1,286046999.7,N
1589568295.9,286047002.4,N
1589568315.7,286046999.9,N
1589568335.5,286047002.8,N
1589568355.4,286046999.9,N
1589568375.2,286046999.8,N
1589568395.0,286047000.6,N
1589568395.9,286047000.6,N
1589568415.8,286047000.0,N
1589568435.6,286047000.2,N
1589568455.5,286047002.7,N
1589568475.3,286047000.0,N
1589568495.1,286047000.2,N
1589568515.9,286046996.6,N
1589568535.7,286046999.1,N
1589568555.6,286046997.9,N
1589568575.4,286046998.4,N
1589568595.2,286046996.5,N
1589568615.1,286046998.7,N
1589568616.0,286046998.7,N
1589568635.8,286046998.5,N
1589568655.7,286046999.9,N
1589568675.5,286046999.9,N
1589568695.3,286046998.1,N
1589568715.2,286047000.0,N
1589568735.9,286047001.1,N
1589568755.7,286047000.7,N
1589568775.6,286047000.5,N
1589568795.4,286046999.8,N
1589568815.3,286047000.8,N
1589568835.1,286047002.2,N
1589568836.0,286047002.2,N
1589568855.8,286046999.7,N
1589568875.7,286047000.4,N
1589568895.5,286047002.8,N
1589568915.3,286047003.3,N
1589568935.2,286047001.4,N
1589568955.0,286046999.8,N
1589568955.9,286046999.8,N
1589568975.8,286046999.3,N
1589568995.6,286046998.5,N
1589569015.4,286046998.5,N
1589569035.3,286046998.2,N
1589569055.1,286047000.5,N
1589569075.9,286047000.1,N
1589569095.7,286047001.4,N
1589569115.5,286047000.3,N
1589569135.4,286046999.9,N
1589569155.2,286046999.8,N
1589569175.1,286047002.6,N
1589569176.0,286047002.6,N
1589569195.8,286047004.1,Y
